QPF
0.00 0.00 0.00 0.00 0.00 0.00 0.00 0.00 0.00 0.00 0.00 0.00 0.00 0.00 0.00 0.00 0.00 0.01 0.01 0.01 0.01 0.02 0.02 0.02 0.02 0.02 0.02 0.02 0.03 0.02 0.02 0.01 0.00 0.00 0.00 0.00 0.00 0.01 0.01 0.01 0.00 0.00 0.01
0.00 0.00 0.00 0.00 0.00 0.00 0.00 0.00 0.00 0.00 0.00 0.00 0.00 0.00 0.00 0.00 0.00 0.00 0.01 0.01 0.01 0.01 0.01 0.02 0.02 0.02 0.02 0.02 0.02 0.02 0.01 0.00 0.00 0.00 0.00 0.00 0.00 0.01 0.01 0.01 0.01 0.01 0.01
0.00 0.00 0.00 0.00 0.00 0.00 0.00 0.00 0.00 0.00 0.00 0.00 0.00 0.00 0.00 0.00 0.00 0.00 0.01 0.01 0.01 0.01 0.01 0.01 0.01 0.01 0.01 0.01 0.01 0.01 0.01 0.00 0.00 0.00 0.00 0.00 0.00 0.01 0.01 0.01 0.01 0.01 0.01
0.00 0.00 0.00 0.00 0.00 0.00 0.00 0.00 0.00 0.00 0.00 0.00 0.00 0.00 0.00 0.00 0.00 0.00 0.00 0.00 0.00 0.00 0.01 0.01 0.01 0.01 0.00 0.01 0.01 0.01 0.01 0.00 0.00 0.00 0.00 0.00 0.00 0.01 0.02 0.02 0.01 0.01 0.01
0.00 0.00 0.00 0.00 0.00 0.00 0.00 0.00 0.00 0.00 0.00 0.00 0.00 0.00 0.00 0.00 0.00 0.00 0.00 0.00 0.00 0.00 0.00 0.00 0.00 0.00 0.00 0.00 0.00 0.00 0.00 0.00 0.00 0.00 0.00 0.00 0.00 0.01 0.02 0.02 0.02 0.01 0.01
0.00 0.00 0.00 0.00 0.00 0.00 0.00 0.00 0.00 0.00 0.00 0.00 0.00 0.00 0.00 0.00 0.00 0.00 0.00 0.00 0.00 0.00 0.00 0.00 0.00 0.00 0.00 0.00 0.00 0.00 0.00 0.00 0.00 0.00 0.00 0.00 0.00 0.00 0.01 0.02 0.02 0.02 0.01
0.00 0.00 0.00 0.00 0.00 0.00 0.00 0.00 0.00 0.00 0.00 0.00 0.00 0.00 0.00 0.00 0.00 0.00 0.00 0.00 0.00 0.00 0.00 0.00 0.00 0.00 0.00 0.00 0.00 0.00 0.00 0.00 0.00 0.00 0.00 0.00 0.00 0.00 0.01 0.01 0.01 0.02 0.02
0.00 0.00 0.00 0.00 0.00 0.00 0.00 0.00 0.00 0.00 0.00 0.00 0.00 0.00 0.00 0.00 0.00 0.00 0.00 0.00 0.00 0.00 0.00 0.00 0.00 0.00 0.00 0.00 0.00 0.00 0.00 0.00 0.00 0.00 0.00 0.00 0.00 0.00 0.01 0.01 0.01 0.01 0.01
0.00 0.00 0.00 0.00 0.00 0.00 0.00 0.00 0.00 0.00 0.00 0.00 0.00 0.00 0.00 0.00 0.00 0.00 0.00 0.00 0.00 0.00 0.00 0.00 0.00 0.00 0.00 0.00 0.00 0.00 0.00 0.00 0.00 0.00 0.00 0.00 0.00 0.00 0.00 0.01 0.01 0.01 0.01
0.00 0.00 0.00 0.00 0.00 0.00 0.00 0.00 0.00 0.00 0.00 0.00 0.00 0.00 0.00 0.00 0.00 0.00 0.00 0.00 0.00 0.00 0.00 0.00 0.00 0.00 0.00 0.00 0.00 0.00 0.00 0.00 0.00 0.00 0.00 0.00 0.00 0.00 0.00 0.00 0.00 0.01 0.01
0.00 0.00 0.00 0.00 0.00 0.00 0.00 0.00 0.00 0.00 0.00 0.00 0.00 0.00 0.00 0.00 0.00 0.00 0.00 0.00 0.00 0.00 0.00 0.00 0.00 0.00 0.00 0.00 0.00 0.00 0.00 0.00 0.00 0.00 0.00 0.00 0.00 0.00 0.00 0.00 0.00 0.00 0.01
0.00 0.00 0.00 0.00 0.00 0.00 0.00 0.00 0.00 0.00 0.00 0.00 0.00 0.00 0.00 0.00 0.00 0.00 0.00 0.00 0.00 0.00 0.00 0.00 0.00 0.00 0.00 0.00 0.00 0.00 0.00 0.00 0.00 0.00 0.00 0.00 0.00 0.00 0.00 0.00 0.00 0.00 0.01
0.00 0.00 0.00 0.00 0.00 0.00 0.00 0.00 0.00 0.00 0.00 0.00 0.00 0.00 0.00 0.00 0.00 0.00 0.00 0.00 0.00 0.00 0.00 0.00 0.00 0.00 0.00 0.00 0.00 0.00 0.00 0.00 0.00 0.00 0.00 0.00 0.00 0.00 0.00 0.00 0.00 0.01 0.01
0.00 0.00 0.00 0.00 0.00 0.00 0.00 0.00 0.00 0.00 0.00 0.00 0.00 0.00 0.00 0.00 0.00 0.00 0.00 0.00 0.00 0.00 0.00 0.00 0.00 0.00 0.00 0.00 0.00 0.00 0.00 0.00 0.00 0.00 0.00 0.00 0.00 0.00 0.00 0.00 0.00 0.01 0.01
0.00 0.00 0.00 0.00 0.00 0.00 0.00 0.00 0.00 0.00 0.00 0.00 0.00 0.00 0.00 0.00 0.00 0.00 0.00 0.00 0.00 0.00 0.00 0.00 0.00 0.00 0.00 0.00 0.00 0.00 0.00 0.00 0.00 0.00 0.00 0.00 0.00 0.00 0.00 0.00 0.00 0.00 0.01
0.00 0.00 0.00 0.00 0.00 0.00 0.00 0.00 0.00 0.00 0.00 0.00 0.00 0.00 0.00 0.00 0.00 0.00 0.00 0.00 0.00 0.00 0.00 0.00 0.00 0.00 0.00 0.00 0.00 0.00 0.00 0.00 0.00 0.00 0.00 0.00 0.00 0.00 0.00 0.00 0.00 0.00 0.01
0.00 0.00 0.00 0.00 0.00 0.00 0.00 0.00 0.00 0.00 0.00 0.00 0.00 0.00 0.00 0.00 0.00 0.00 0.00 0.00 0.00 0.00 0.00 0.00 0.00 0.00 0.00 0.00 0.00 0.00 0.00 0.00 0.00 0.00 0.00 0.00 0.00 0.00 0.00 0.00 0.00 0.00 0.00
0.00 0.00 0.00 0.00 0.00 0.00 0.00 0.00 0.00 0.00 0.00 0.00 0.00 0.00 0.00 0.00 0.00 0.00 0.00 0.00 0.00 0.00 0.00 0.00 0.00 0.00 0.00 0.00 0.00 0.00 0.00 0.00 0.00 0.00 0.00 0.00 0.00 0.00 0.00 0.00 0.00 0.00 0.00
0.00 0.00 0.00 0.00 0.00 0.00 0.00 0.00 0.00 0.00 0.00 0.00 0.00 0.00 0.00 0.00 0.00 0.00 0.00 0.00 0.00 0.00 0.00 0.00 0.00 0.00 0.00 0.00 0.00 0.00 0.00 0.00 0.00 0.00 0.00 0.00 0.00 0.00 0.00 0.00 0.00 0.00 0.00
0.00 0.00 0.00 0.00 0.00 0.00 0.00 0.00 0.00 0.00 0.00 0.00 0.00 0.00 0.00 0.00 0.00 0.00 0.00 0.00 0.00 0.00 0.00 0.00 0.00 0.00 0.00 0.00 0.00 0.00 0.00 0.00 0.00 0.00 0.00 0.00 0.00 0.00 0.00 0.00 0.00 0.00 0.00
0.00 0.00 0.00 0.00 0.00 0.00 0.00 0.00 0.00 0.00 0.00 0.00 0.00 0.00 0.00 0.00 0.00 0.00 0.00 0.00 0.00 0.00 0.00 0.00 0.00 0.00 0.00 0.00 0.00 0.00 0.00 0.00 0.00 0.00 0.00 0.00 0.00 0.00 0.00 0.00 0.00 0.00 0.00
0.00 0.00 0.00 0.00 0.00 0.00 0.00 0.00 0.00 0.00 0.00 0.00 0.00 0.00 0.00 0.00 0.00 0.00 0.00 0.00 0.00 0.00 0.00 0.00 0.00 0.00 0.00 0.00 0.00 0.00 0.00 0.00 0.00 0.00 0.00 0.00 0.00 0.00 0.00 0.00 0.00 0.00 0.00
0.00 0.00 0.00 0.00 0.00 0.00 0.00 0.00 0.00 0.00 0.00 0.00 0.00 0.00 0.00 0.00 0.00 0.00 0.00 0.00 0.00 0.00 0.00 0.00 0.00 0.00 0.00 0.00 0.00 0.00 0.00 0.00 0.00 0.00 0.00 0.00 0.00 0.00 0.00 0.00 0.00 0.00 0.00
0.00 0.00 0.00 0.00 0.00 0.00 0.00 0.00 0.00 0.00 0.00 0.00 0.00 0.00 0.00 0.00 0.00 0.00 0.00 0.00 0.00 0.00 0.00 0.00 0.00 0.00 0.00 0.00 0.00 0.00 0.00 0.00 0.00 0.00 0.00 0.00 0.00 0.00 0.00 0.00 0.00 0.00 0.00
0.00 0.00 0.00 0.00 0.00 0.00 0.00 0.00 0.00 0.00 0.00 0.00 0.00 0.00 0.00 0.00 0.00 0.00 0.00 0.00 0.00 0.00 0.00 0.00 0.00 0.00 0.00 0.00 0.00 0.00 0.00 0.00 0.00 0.00 0.00 0.00 0.00 0.00 0.00 0.00 0.00 0.00 0.00
0.00 0.00 0.00 0.00 0.00 0.00 0.00 0.00 0.00 0.00 0.00 0.00 0.00 0.00 0.00 0.00 0.00 0.00 0.00 0.00 0.00 0.00 0.00 0.00 0.00 0.00 0.00 0.00 0.00 0.00 0.00 0.00 0.00 0.00 0.00 0.00 0.00 0.00 0.00 0.00 0.00 0.00 0.00
MSLP
1025.54 1025.91 1026.24 1026.54 1026.81 1027.06 1027.27 1027.43 1027.53 1027.54 1027.47 1027.34 1027.17 1027.00 1026.88 1026.81 1026.80 1026.84 1026.88 1026.90 1026.86 1026.75 1026.58 1026.39 1026.22 1026.10 1026.05 1026.09 1026.16 1026.23 1026.24 1026.15 1025.93 1025.58 1025.14 1024.64 1024.14 1023.69 1023.32 1023.01 1022.77 1022.55 1022.33
1025.17 1025.56 1025.93 1026.28 1026.63 1026.95 1027.25 1027.49 1027.64 1027.71 1027.67 1027.56 1027.41 1027.26 1027.16 1027.11 1027.13 1027.19 1027.26 1027.29 1027.27 1027.17 1027.03 1026.85 1026.69 1026.59 1026.56 1026.59 1026.66 1026.73 1026.73 1026.63 1026.41 1026.06 1025.62 1025.14 1024.66 1024.22 1023.85 1023.54 1023.29 1023.07 1022.85
1024.98 1025.37 1025.75 1026.13 1026.51 1026.89 1027.24 1027.54 1027.75 1027.87 1027.88 1027.81 1027.70 1027.59 1027.51 1027.48 1027.51 1027.57 1027.63 1027.66 1027.64 1027.54 1027.40 1027.23 1027.08 1026.98 1026.96 1026.99 1027.05 1027.10 1027.09 1026.98 1026.76 1026.43 1026.02 1025.57 1025.12 1024.70 1024.34 1024.04 1023.78 1023.55 1023.32
1024.97 1025.34 1025.71 1026.09 1026.48 1026.87 1027.25 1027.59 1027.85 1028.02 1028.09 1028.08 1028.01 1027.94 1027.89 1027.88 1027.91 1027.96 1028.01 1028.01 1027.97 1027.86 1027.71 1027.54 1027.40 1027.31 1027.28 1027.30 1027.35 1027.39 1027.37 1027.26 1027.05 1026.74 1026.36 1025.94 1025.52 1025.13 1024.78 1024.48 1024.21 1023.97 1023.74
1025.09 1025.45 1025.79 1026.14 1026.51 1026.90 1027.28 1027.64 1027.93 1028.14 1028.26 1028.31 1028.31 1028.28 1028.27 1028.28 1028.31 1028.35 1028.37 1028.35 1028.28 1028.16 1028.01 1027.84 1027.70 1027.61 1027.58 1027.60 1027.63 1027.65 1027.61 1027.50 1027.30 1027.01 1026.66 1026.27 1025.88 1025.51 1025.17 1024.86 1024.59 1024.33 1024.08
1025.27 1025.60 1025.91 1026.22 1026.56 1026.92 1027.29 1027.65 1027.96 1028.21 1028.38 1028.49 1028.55 1028.58 1028.61 1028.65 1028.69 1028.73 1028.74 1028.70 1028.62 1028.49 1028.33 1028.17 1028.04 1027.95 1027.91 1027.91 1027.93 1027.92 1027.87 1027.75 1027.55 1027.28 1026.95 1026.59 1026.21 1025.85 1025.51 1025.19 1024.90 1024.63 1024.37
1025.40 1025.70 1025.98 1026.26 1026.57 1026.90 1027.26 1027.61 1027.94 1028.21 1028.43 1028.60 1028.72 1028.82 1028.90 1028.98 1029.05 1029.10 1029.11 1029.07 1028.98 1028.86 1028.71 1028.56 1028.43 1028.34 1028.30 1028.28 1028.27 1028.23 1028.16 1028.02 1027.82 1027.55 1027.24 1026.89 1026.53 1026.17 1025.82 1025.49 1025.18 1024.89 1024.63
1025.41 1025.69 1025.95 1026.20 1026.49 1026.81 1027.16 1027.51 1027.85 1028.15 1028.42 1028.64 1028.82 1028.98 1029.13 1029.26 1029.37 1029.45 1029.48 1029.45 1029.38 1029.26 1029.13 1028.99 1028.87 1028.78 1028.72 1028.68 1028.63 1028.57 1028.46 1028.30 1028.09 1027.83 1027.52 1027.19 1026.84 1026.48 1026.13 1025.78 1025.45 1025.14 1024.86
1025.26 1025.52 1025.77 1026.02 1026.31 1026.64 1026.99 1027.36 1027.71 1028.05 1028.35 1028.62 1028.86 1029.09 1029.29 1029.48 1029.64 1029.75 1029.81 1029.81 1029.76 1029.67 1029.55 1029.42 1029.31 1029.21 1029.13 1029.06 1028.98 1028.88 1028.74 1028.56 1028.34 1028.08 1027.79 1027.48 1027.14 1026.79 1026.44 1026.08 1025.73 1025.40 1025.10
1024.94 1025.20 1025.46 1025.73 1026.05 1026.40 1026.78 1027.17 1027.55 1027.92 1028.25 1028.56 1028.85 1029.13 1029.39 1029.63 1029.83 1029.99 1030.08 1030.11 1030.08 1030.01 1029.90 1029.79 1029.68 1029.57 1029.47 1029.37 1029.26 1029.13 1028.97 1028.77 1028.55 1028.31 1028.04 1027.75 1027.44 1027.11 1026.77 1026.40 1026.04 1025.69 1025.36
1024.49 1024.76 1025.05 1025.37 1025.73 1026.13 1026.55 1026.97 1027.38 1027.77 1028.13 1028.48 1028.80 1029.12 1029.42 1029.69 1029.93 1030.11 1030.23 1030.29 1030.28 1030.22 1030.13 1030.03 1029.92 1029.81 1029.69 1029.58 1029.44 1029.29 1029.11 1028.91 1028.70 1028.48 1028.25 1028.00 1027.73 1027.44 1027.11 1026.75 1026.37 1025.99 1025.62
1023.92 1024.22 1024.56 1024.94 1025.37 1025.83 1026.30 1026.77 1027.20 1027.61 1027.99 1028.35 1028.70 1029.03 1029.35 1029.65 1029.90 1030.10 1030.24 1030.30 1030.31 1030.27 1030.19 1030.09 1029.99 1029.88 1029.77 1029.64 1029.50 1029.34 1029.16 1028.97 1028.79 1028.60 1028.41 1028.22 1028.00 1027.74 1027.44 1027.10 1026.71 1026.30 1025.88
1023.27 1023.62 1024.03 1024.49 1024.99 1025.51 1026.03 1026.53 1026.99 1027.41 1027.79 1028.16 1028.51 1028.85 1029.17 1029.48 1029.74 1029.95 1030.08 1030.15 1030.17 1030.13 1030.07 1029.99 1029.90 1029.81 1029.70 1029.59 1029.45 1029.30 1029.13 1028.97 1028.81 1028.66 1028.52 1028.38 1028.22 1028.01 1027.75 1027.41 1027.02 1026.58 1026.12
1022.53 1022.96 1023.44 1023.98 1024.55 1025.13 1025.70 1026.22 1026.70 1027.12 1027.50 1027.86 1028.21 1028.54 1028.87 1029.17 1029.43 1029.64 1029.77 1029.85 1029.86 1029.84 1029.80 1029.74 1029.68 1029.61 1029.54 1029.44 1029.33 1029.19 1029.05 1028.90 1028.77 1028.66 1028.56 1028.47 1028.36 1028.20 1027.97 1027.66 1027.27 1026.81 1026.31
1021.70 1022.21 1022.78 1023.40 1024.04 1024.67 1025.26 1025.80 1026.28 1026.70 1027.08 1027.43 1027.77 1028.10 1028.43 1028.73 1028.99 1029.20 1029.34 1029.42 1029.45 1029.44 1029.42 1029.40 1029.37 1029.35 1029.31 1029.25 1029.16 1029.05 1028.92 1028.79 1028.67 1028.58 1028.51 1028.45 1028.38 1028.26 1028.07 1027.79 1027.41 1026.94 1026.41
1020.77 1021.37 1022.02 1022.71 1023.40 1024.06 1024.67 1025.22 1025.70 1026.11 1026.49 1026.84 1027.18 1027.52 1027.85 1028.17 1028.44 1028.66 1028.81 1028.91 1028.96 1028.98 1029.00 1029.01 1029.03 1029.05 1029.06 1029.04 1028.98 1028.88 1028.76 1028.63 1028.51 1028.41 1028.34 1028.30 1028.24 1028.15 1028.00 1027.75 1027.39 1026.94 1026.40
1019.73 1020.42 1021.15 1021.88 1022.61 1023.29 1023.91 1024.46 1024.94 1025.35 1025.73 1026.09 1026.44 1026.80 1027.16 1027.50 1027.80 1028.05 1028.23 1028.36 1028.45 1028.50 1028.56 1028.62 1028.69 1028.75 1028.80 1028.81 1028.77 1028.68 1028.55 1028.41 1028.26 1028.14 1028.05 1027.98 1027.93 1027.85 1027.73 1027.51 1027.20 1026.77 1026.26
1018.61 1019.37 1020.15 1020.93 1021.67 1022.37 1022.99 1023.53 1024.01 1024.43 1024.82 1025.20 1025.58 1025.97 1026.37 1026.74 1027.09 1027.38 1027.61 1027.78 1027.91 1028.01 1028.11 1028.22 1028.33 1028.43 1028.51 1028.54 1028.52 1028.43 1028.29 1028.10 1027.91 1027.74 1027.61 1027.51 1027.43 1027.35 1027.25 1027.07 1026.80 1026.43 1025.97
1017.46 1018.26 1019.07 1019.86 1020.61 1021.30 1021.92 1022.47 1022.95 1023.39 1023.79 1024.20 1024.61 1025.04 1025.48 1025.90 1026.29 1026.64 1026.93 1027.15 1027.33 1027.49 1027.63 1027.78 1027.92 1028.06 1028.16 1028.21 1028.19 1028.10 1027.93 1027.71 1027.47 1027.24 1027.04 1026.88 1026.77 1026.68 1026.57 1026.43 1026.21 1025.91 1025.52
1016.32 1017.13 1017.93 1018.71 1019.45 1020.14 1020.76 1021.32 1021.81 1022.26 1022.68 1023.11 1023.55 1024.02 1024.49 1024.96 1025.41 1025.81 1026.16 1026.44 1026.68 1026.89 1027.07 1027.26 1027.43 1027.59 1027.71 1027.78 1027.77 1027.66 1027.48 1027.22 1026.93 1026.64 1026.37 1026.16 1025.99 1025.86 1025.75 1025.63 1025.46 1025.22 1024.90
1015.23 1016.01 1016.78 1017.53 1018.25 1018.93 1019.55 1020.11 1020.61 1021.08 1021.52 1021.96 1022.42 1022.90 1023.41 1023.91 1024.40 1024.86 1025.26 1025.61 1025.91 1026.17 1026.40 1026.61 1026.82 1027.00 1027.14 1027.22 1027.22 1027.12 1026.93 1026.66 1026.34 1026.00 1025.67 1025.38 1025.15 1024.98 1024.84 1024.72 1024.58 1024.39 1024.14
1014.21 1014.92 1015.63 1016.34 1017.03 1017.69 1018.31 1018.88 1019.39 1019.87 1020.31 1020.76 1021.21 1021.70 1022.21 1022.73 1023.26 1023.76 1024.22 1024.63 1024.98 1025.30 1025.57 1025.82 1026.06 1026.26 1026.43 1026.54 1026.56 1026.49 1026.32 1026.06 1025.73 1025.36 1024.98 1024.63 1024.33 1024.09 1023.90 1023.75 1023.61 1023.45 1023.25
1013.26 1013.88 1014.51 1015.15 1015.81 1016.45 1017.07 1017.64 1018.16 1018.63 1019.07 1019.50 1019.93 1020.40 1020.89 1021.42 1021.96 1022.50 1023.01 1023.48 1023.90 1024.27 1024.59 1024.89 1025.15 1025.39 1025.60 1025.75 1025.82 1025.80 1025.68 1025.46 1025.14 1024.76 1024.35 1023.94 1023.57 1023.25 1023.00 1022.79 1022.62 1022.45 1022.27
1012.37 1012.86 1013.39 1013.97 1014.58 1015.21 1015.82 1016.39 1016.92 1017.38 1017.80 1018.19 1018.59 1019.01 1019.48 1019.99 1020.54 1021.11 1021.67 1022.19 1022.68 1023.11 1023.49 1023.83 1024.14 1024.42 1024.68 1024.88 1025.02 1025.08 1025.03 1024.87 1024.60 1024.24 1023.81 1023.36 1022.92 1022.51 1022.16 1021.87 1021.63 1021.43 1021.23
1011.49 1011.86 1012.29 1012.80 1013.36 1013.97 1014.57 1015.15 1015.66 1016.11 1016.50 1016.85 1017.20 1017.57 1018.00 1018.49 1019.04 1019.63 1020.24 1020.82 1021.37 1021.86 1022.31 1022.70 1023.06 1023.40 1023.71 1023.98 1024.20 1024.35 1024.39 1024.32 1024.11 1023.79 1023.36 1022.87 1022.36 1021.86 1021.40 1021.01 1020.68 1020.42 1020.18
1010.64 1010.89 1011.22 1011.65 1012.17 1012.75 1013.34 1013.91 1014.42 1014.85 1015.21 1015.51 1015.81 1016.13 1016.52 1016.98 1017.53 1018.14 1018.79 1019.43 1020.04 1020.59 1021.10 1021.55 1021.96 1022.34 1022.71 1023.06 1023.37 1023.61 1023.75 1023.77 1023.64 1023.36 1022.95 1022.44 1021.86 1021.27 1020.71 1020.21 1019.78 1019.43 1019.14
Thickness
5670 5665 5660 5658 5655 5653 5652 5650 5649 5648 5648 5648 5647 5646 5646 5645 5646 5646 5646 5646 5646 5647 5647 5648 5648 5649 5650 5650 5649 5648 5648 5649 5652 5655 5658 5661 5666 5669 5671 5674 5677 5680 5681
5673 5667 5661 5658 5655 5652 5650 5648 5647 5646 5645 5644 5643 5642 5641 5640 5640 5639 5639 5639 5639 5640 5640 5640 5641 5642 5642 5642 5642 5641 5640 5641 5643 5646 5649 5653 5657 5662 5664 5666 5668 5670 5673
5671 5667 5662 5658 5654 5651 5648 5646 5644 5642 5641 5640 5639 5638 5636 5635 5634 5634 5633 5633 5633 5632 5633 5633 5633 5634 5635 5635 5635 5634 5633 5633 5634 5637 5641 5645 5649 5653 5656 5658 5660 5662 5665
5670 5666 5663 5657 5653 5649 5646 5644 5641 5639 5637 5636 5634 5633 5632 5630 5629 5628 5627 5626 5626 5625 5625 5625 5625 5626 5627 5627 5627 5627 5626 5626 5627 5630 5633 5635 5639 5644 5648 5650 5652 5654 5656
5668 5665 5661 5655 5651 5647 5644 5641 5639 5636 5634 5632 5630 5628 5627 5625 5624 5623 5621 5620 5619 5618 5618 5617 5617 5617 5618 5619 5619 5619 5619 5618 5620 5622 5624 5626 5630 5635 5639 5641 5643 5645 5648
5667 5663 5658 5653 5649 5645 5642 5639 5636 5633 5630 5628 5625 5623 5622 5620 5618 5617 5615 5614 5613 5612 5611 5610 5609 5609 5609 5610 5610 5610 5610 5610 5612 5614 5616 5617 5621 5625 5629 5632 5634 5636 5639
5666 5661 5657 5651 5647 5643 5640 5636 5633 5630 5627 5624 5621 5619 5617 5615 5613 5611 5609 5608 5606 5605 5604 5603 5602 5601 5601 5601 5601 5601 5601 5601 5603 5605 5606 5608 5611 5615 5618 5621 5623 5626 5629
5664 5659 5654 5649 5646 5641 5638 5634 5630 5627 5624 5621 5617 5615 5612 5610 5607 5605 5603 5601 5600 5598 5597 5596 5595 5594 5593 5593 5593 5592 5592 5593 5595 5596 5596 5598 5600 5603 5607 5609 5611 5614 5617
5660 5656 5652 5649 5644 5640 5636 5632 5628 5625 5621 5617 5614 5610 5607 5605 5602 5600 5598 5596 5594 5592 5591 5589 5588 5586 5586 5586 5585 5584 5584 5584 5586 5586 5586 5587 5588 5591 5594 5597 5599 5601 5604
5658 5655 5651 5648 5645 5640 5635 5630 5626 5622 5618 5614 5610 5606 5602 5599 5597 5594 5592 5590 5588 5586 5584 5582 5581 5579 5578 5578 5577 5576 5576 5577 5577 5577 5577 5577 5578 5580 5583 5585 5587 5589 5592
5657 5654 5651 5647 5643 5639 5635 5630 5625 5620 5616 5611 5607 5602 5598 5595 5592 5589 5586 5584 5581 5579 5577 5575 5573 5571 5570 5570 5569 5568 5569 5569 5568 5567 5566 5566 5567 5569 5571 5573 5575 5577 5580
5661 5656 5651 5647 5642 5638 5633 5629 5624 5620 5615 5610 5606 5600 5596 5592 5588 5585 5580 5578 5575 5572 5570 5568 5565 5564 5563 5563 5562 5560 5560 5559 5558 5557 5556 5554 5555 5556 5558 5559 5561 5563 5566
5665 5658 5652 5647 5642 5637 5632 5628 5623 5619 5613 5608 5603 5598 5593 5589 5584 5580 5576 5572 5569 5566 5564 5561 5560 5558 5556 5554 5552 5551 5549 5548 5547 5546 5545 5543 5542 5543 5544 5545 5546 5548 5550
5667 5662 5654 5648 5642 5637 5633 5628 5623 5618 5613 5608 5602 5597 5591 5586 5581 5577 5573 5569 5565 5561 5558 5555 5553 5550 5547 5545 5543 5540 5538 5536 5535 5533 5532 5529 5528 5528 5529 5530 5531 5532 5534
5670 5664 5658 5650 5644 5638 5632 5628 5623 5618 5613 5607 5601 5595 5590 5585 5580 5575 5570 5565 5561 5557 5553 5549 5546 5542 5539 5536 5533 5530 5527 5525 5523 5521 5519 5517 5515 5513 5513 5514 5515 5515 5516
5675 5668 5661 5653 5646 5639 5633 5629 5624 5618 5612 5607 5601 5595 5589 5583 5578 5572 5567 5561 5557 5552 5548 5543 5539 5534 5531 5527 5523 5520 5516 5514 5511 5508 5506 5504 5502 5499 5498 5497 5497 5497 5498
5681 5672 5664 5656 5648 5641 5635 5629 5624 5618 5612 5606 5600 5594 5587 5581 5575 5569 5564 5558 5553 5547 5541 5536 5531 5526 5522 5518 5514 5510 5507 5503 5500 5497 5494 5492 5489 5487 5483 5481 5480 5479 5479
5684 5676 5668 5659 5651 5644 5637 5630 5624 5618 5612 5606 5600 5594 5587 5580 5573 5566 5561 5555 5549 5542 5536 5530 5525 5520 5515 5510 5506 5501 5497 5493 5490 5487 5483 5480 5477 5474 5471 5467 5464 5462 5461
5688 5680 5671 5662 5654 5646 5638 5630 5624 5618 5611 5606 5600 5593 5586 5579 5571 5563 5557 5551 5544 5537 5530 5524 5518 5512 5507 5501 5496 5492 5488 5484 5481 5477 5473 5468 5464 5460 5457 5453 5450 5446 5443
5690 5682 5673 5664 5656 5647 5637 5630 5623 5617 5612 5606 5600 5593 5586 5578 5569 5561 5554 5547 5539 5532 5525 5518 5512 5504 5497 5491 5486 5482 5479 5475 5471 5467 5462 5457 5452 5447 5443 5439 5435 5432 5428
5689 5682 5675 5667 5658 5648 5641 5634 5628 5622 5614 5607 5600 5593 5585 5577 5568 5559 5551 5543 5535 5529 5522 5513 5505 5498 5490 5481 5475 5475 5474 5469 5464 5457 5451 5445 5440 5435 5429 5424 5420 5416 5413
5692 5684 5676 5669 5660 5653 5646 5638 5631 5622 5615 5608 5599 5591 5584 5576 5567 5558 5549 5541 5532 5524 5516 5507 5498 5491 5484 5474 5468 5465 5466 5469 5461 5450 5441 5434 5427 5422 5416 5410 5404 5399 5395
5691 5685 5678 5671 5662 5653 5644 5632 5624 5617 5613 5607 5600 5592 5584 5574 5566 5557 5548 5539 5530 5521 5513 5503 5493 5484 5477 5469 5459 5453 5450 5456 5450 5444 5433 5423 5414 5407 5401 5395 5388 5382 5376
5689 5682 5675 5668 5660 5651 5640 5633 5627 5621 5619 5615 5605 5594 5583 5572 5564 5556 5546 5536 5527 5518 5509 5499 5489 5479 5470 5462 5453 5443 5436 5431 5424 5427 5426 5414 5404 5396 5389 5382 5375 5367 5359
5686 5678 5671 5663 5656 5648 5640 5633 5626 5622 5619 5611 5602 5594 5583 5573 5562 5553 5543 5534 5524 5515 5505 5495 5484 5473 5464 5455 5447 5438 5427 5418 5409 5402 5408 5405 5397 5387 5379 5370 5363 5354 5346
5683 5675 5667 5661 5655 5647 5638 5631 5625 5622 5615 5608 5602 5594 5583 5573 5562 5551 5540 5531 5522 5512 5501 5490 5479 5468 5458 5447 5438 5429 5419 5411 5405 5398 5396 5395 5389 5379 5367 5357 5349 5342 5333